Showing default

ASTROCAST-0103, 47487

Orbit data source: Space-Track

ASTROCAST-0103, 47487 is a payload satellite owned by Astrocast (CH) in SSO that was launched on Sun, 24 Jan 2021 UTC via an FALCON 9 launch vehicle from the Air Force Eastern Test Range (AFETR). Payload-class satellites include a variety of spacecraft equipped with specific instruments for various scientific and technological missions. These include communications satellites like Starlink; space stations such as the ISS; scientific satellites like the Hubble; Earth observation satellites from companies like Planet Labs, Umbra, and HawkEye 360; GPS; miniature CubeSats for education and research; and military/defense satellites.

Loading next visibility...
Identifier
47487, 2021-006CC
Orbit
SSO
Country
Flag of UnknownUnknown / SWTZ
Related business
Manufacturer
Astrocast
Mission
Operational Commercial Communications
Bus & Motor
CUBESAT 3U, Unknown motor
Mass
5 kg wet, 5 kg dry
Launch date (UTC)
2021-01-24 (5 years ago)
Launch vehicle
FALCON 9
Launch site
Air Force Eastern Test Range (AFETR)
Object type
Payload
Rocket body
Debris
Shape & HBR
Box, Unknown HBR
Radar Cross Section
0.035 m², Medium (>0.1 m² and < 1m²)

Expand to show TLE details & history
Last TLE update: 2 days ago

TLE from 2 days ago
0 ASTROCAST-0103
1 47487U 21006CC  25306.12421652  .00043177  00000-0  61429-3 0  9995
2 47487  97.2872   6.5755 0003429 206.7922 153.3157 15.56242730265587
Epoch: 2025-11-02T02:58Z
TLE epoch observation values (Epoch: 2025-11-02T02:58:52.307Z)
Latitude
0.00004°
Longitude
-79.7869°
Altitude
403.762 km
Speed
7.667 km/s
True Right ascension
00h 26m 18s
True Declination
0° 00' 00"
Sunlit
Object was in full shadow at epoch
Visualization orbit readout
Latitude
Unknown
Longitude
Unknown
Altitude
Unknown
Speed
Unknown
Apparent Right ascension
Unknown
Apparent Declination
Unknown
Sunlit
N/A
Visualization observer readout
Local Sidereal Time
16:20:14
Azimuth
Unknown
Elevation
Unknown
Doppler factor
Unknown
Orbital elements
Apogee altitude
397.778 km
Perigee altitude
393.132 km
Semi-major axis
6,773.592 km
Eccentricity
0.00034
Inclination
97.2872°
RAAN
6.5755°
Arg. of periapsis
206.7922°
True anomaly
153.33334°
Mean anomaly
153.3157°
Eccentric anomaly
153.32452°
Mean motion
3.89327 °/min
Orbital period
92.47 mins
BSTAR
0.00061429
Loading maneuver chart data...
Computing Atmospheric mass density...

Documentation

Showing up to 5 results
|